Zurück zum Katalog

SL-19 R/B

AktivLEO
NORAD 36589·ROCKET BODY·🇷🇺 Russia

Gestartet Jun 2, 2010 von Plesetsk Cosmodrome

Loading…

Nächste Überflüge (nächste 24 Stunden)

TLE

AktuellSource: Space-Track

Epoche: Sep 14, 2026, 08:17 UTC

1 36589U 10023B   26257.34539902 -.00000022  00000-0  31634-4 0  9990
2 36589 100.5173 224.2764 0225763  90.6223  77.5236 13.58552197807746

Verfolge SL-19 R/B in Echtzeit mit AllMySat

Download on the App Store